Theta_e
356 356 356 355 355 355 354 354 354 353 352 352 351 351 351 352 356 364 372 367 354 351 355 353 352 352 352 354 353 354 354 354 353 354 354 356 356 355 355 355 355 356 354 355 356 356 357 357 357 357 356 355 354 353 352 350 349 349 348 348 346 336 322 316 316 317 321 324 322 324 329 332 333 334
356 356 356 356 356 357 356 355 355 354 354 353 351 352 353 354 354 355 362 366 357 351 352 350 350 351 351 350 349 349 351 354 355 354 355 353 354 354 355 355 356 356 355 355 355 357 357 357 357 358 357 356 355 354 354 353 351 349 349 348 349 344 330 318 316 317 319 324 323 322 328 332 334 336
356 356 356 356 357 357 357 357 358 356 354 354 352 353 354 354 354 352 355 360 357 351 352 350 350 354 353 350 348 345 345 348 350 352 351 350 351 352 354 355 356 356 355 354 354 356 358 357 357 357 357 357 356 355 354 354 353 350 349 348 348 348 339 323 317 317 318 322 324 321 325 332 335 336
356 356 356 356 357 357 358 358 358 357 356 355 354 354 354 353 353 352 353 356 355 353 353 352 352 354 353 349 348 347 347 347 347 348 349 350 352 353 354 354 355 355 354 354 352 353 356 358 357 356 357 357 356 356 354 354 354 353 351 350 348 348 345 332 319 316 317 320 324 322 323 331 336 336
355 356 354 356 357 357 357 358 357 358 357 356 355 355 354 353 352 351 352 354 354 354 353 352 352 352 351 350 348 349 350 352 352 351 350 352 354 354 353 351 351 352 353 353 350 350 355 357 356 356 356 356 356 356 355 355 354 354 353 351 349 348 348 340 325 317 317 319 323 324 323 328 334 336
354 354 354 355 356 357 357 357 358 358 357 357 356 355 354 353 352 351 351 353 353 353 351 351 351 350 351 352 350 348 350 352 353 352 351 352 351 350 349 348 348 348 351 352 351 351 354 356 355 354 353 354 355 355 355 355 354 354 354 352 351 348 349 345 332 319 317 318 321 325 324 325 332 335
355 354 353 353 355 357 357 357 357 357 356 355 355 354 354 353 353 352 351 351 352 352 351 350 350 350 352 352 351 350 348 349 351 352 351 349 345 345 347 348 349 349 350 352 352 352 353 354 354 352 350 350 352 354 355 355 354 354 354 353 352 350 349 348 339 324 318 318 319 323 325 325 328 334
355 355 354 353 354 355 356 356 357 356 355 354 354 354 354 353 353 352 351 351 351 351 352 352 351 352 352 352 351 350 348 347 348 349 346 343 340 340 344 348 348 348 350 351 352 353 353 354 354 352 350 348 350 351 353 354 354 354 353 353 352 351 349 348 344 330 320 318 318 321 325 326 327 331
352 354 355 355 353 354 354 354 354 354 353 353 353 353 353 353 353 353 351 352 352 352 352 353 352 352 352 352 350 348 348 345 343 340 338 336 334 334 336 340 344 347 350 349 351 352 353 355 355 353 352 349 348 348 350 352 353 353 353 353 352 351 350 349 347 336 323 318 318 319 323 326 327 330
352 353 354 355 355 354 354 353 353 353 353 353 353 353 353 353 353 352 351 351 352 353 353 353 352 351 351 351 347 345 347 349 346 342 337 334 333 332 332 333 335 339 344 348 350 350 351 354 355 355 355 352 348 348 349 350 352 352 353 353 352 351 351 349 348 341 328 321 319 319 321 325 328 329
352 352 353 354 355 354 354 354 354 354 354 354 354 354 353 354 354 353 352 352 353 353 352 352 351 350 350 350 348 345 347 350 350 347 344 340 337 338 338 336 333 332 335 343 347 346 346 349 354 356 355 352 348 347 349 349 351 352 352 352 353 352 351 350 349 344 333 323 320 319 319 323 328 331
352 353 353 352 352 352 353 354 354 354 354 354 353 353 353 352 352 352 351 351 351 352 352 351 351 351 351 351 349 347 347 348 347 346 346 346 343 342 343 342 339 337 336 339 340 341 344 347 351 353 351 349 348 347 349 350 350 352 352 352 352 352 352 351 349 346 337 327 322 320 319 321 326 331
352 352 352 352 352 352 352 352 352 352 352 352 352 351 351 350 350 350 349 349 349 350 350 351 350 351 351 350 348 347 346 346 345 344 347 348 345 345 346 345 341 342 342 341 339 340 345 348 348 348 347 346 347 348 350 350 350 351 352 352 352 352 352 352 350 347 340 331 325 321 319 320 323 329
352 352 352 352 352 352 353 352 352 352 352 351 351 351 351 351 352 351 350 349 349 349 349 349 349 350 351 349 348 348 346 345 346 345 345 346 345 346 348 348 344 344 346 346 344 342 345 347 345 343 343 345 347 349 350 350 350 350 351 352 352 352 353 353 351 349 344 337 329 322 320 320 322 326
353 353 353 353 352 352 352 353 352 352 352 351 350 350 351 350 351 352 352 351 350 350 349 349 349 350 350 349 347 348 348 346 346 345 344 345 346 347 348 349 348 347 348 348 347 344 344 345 345 342 343 345 348 350 349 350 350 348 348 350 353 353 353 353 352 350 347 342 334 326 321 319 321 324
352 353 352 352 351 351 350 351 352 352 352 351 349 349 349 349 349 350 350 349 348 349 349 349 349 349 349 349 348 348 348 348 347 346 345 345 345 346 347 348 348 350 349 347 346 346 346 346 345 345 345 346 348 350 350 351 350 346 344 348 352 354 353 352 352 351 349 346 340 332 324 320 320 322
351 352 351 351 352 351 350 349 349 350 350 350 350 350 349 349 348 349 348 347 347 347 348 349 349 347 347 348 347 346 348 349 348 347 346 345 345 345 346 348 349 349 349 347 346 347 349 348 347 347 347 347 349 350 349 350 349 347 344 345 349 353 353 352 351 351 350 348 345 339 330 322 320 322
351 352 352 353 352 352 351 351 350 349 348 347 347 348 349 349 349 349 348 347 346 346 346 347 346 345 345 346 345 343 345 348 347 347 347 345 345 345 346 348 349 349 348 348 348 348 350 350 349 349 349 348 348 348 349 349 349 347 345 344 346 350 353 352 351 351 350 349 347 344 338 328 321 321
351 351 351 352 351 351 351 351 351 351 350 349 348 347 347 348 348 348 346 345 345 345 345 346 345 345 345 345 346 346 346 346 346 346 347 346 346 345 347 348 350 349 347 348 349 349 350 349 350 350 349 349 348 348 348 348 347 346 344 343 345 348 351 352 350 350 350 350 349 347 343 335 325 321
351 352 351 352 352 352 351 350 350 351 351 352 351 350 349 348 347 346 344 344 346 346 346 346 347 347 346 346 347 348 347 348 349 348 347 346 346 346 346 348 349 349 348 348 349 349 350 349 350 350 349 349 349 347 347 346 345 344 344 344 346 347 350 351 350 350 349 350 350 348 346 341 331 323
351 352 352 352 352 351 352 351 350 350 351 353 353 352 351 350 349 347 345 345 346 347 346 346 347 346 345 346 346 348 347 347 349 349 348 347 347 346 345 347 349 348 348 349 349 349 349 349 349 350 350 350 350 349 348 347 345 344 344 345 346 347 350 351 350 349 349 349 350 349 347 344 337 328
351 352 351 352 353 352 353 352 352 351 351 352 352 352 351 351 350 350 349 348 347 346 346 345 344 344 345 347 349 350 350 348 347 348 348 348 348 347 347 348 348 348 349 350 350 349 349 349 349 350 350 350 350 350 349 347 345 344 343 344 345 346 349 350 351 349 349 349 349 349 348 346 341 334
353 353 353 352 353 353 354 353 354 353 351 350 350 350 350 350 350 350 350 349 348 347 346 344 345 345 348 350 351 352 351 350 349 348 348 348 348 348 348 349 348 348 350 351 351 350 349 350 350 350 350 350 351 351 350 350 348 347 346 345 345 345 347 349 350 350 349 348 348 349 349 346 344 339
353 353 353 353 353 353 352 353 353 353 352 350 349 349 349 349 349 349 349 348 347 346 346 346 347 348 350 351 352 353 353 353 352 350 350 349 349 349 348 349 348 348 351 353 352 351 351 351 351 350 350 350 351 350 351 351 350 350 350 349 347 346 345 347 348 349 348 348 347 347 348 348 345 342
353 353 352 353 352 352 351 351 352 352 353 352 351 350 350 349 349 349 349 349 348 348 348 349 350 351 352 353 354 354 354 355 354 353 353 352 352 351 351 351 350 350 352 354 353 352 352 351 351 351 350 350 350 350 351 352 352 352 352 351 350 348 346 346 348 348 348 348 348 347 348 348 347 344
352 352 352 352 351 352 351 351 352 352 352 352 352 352 352 351 351 351 351 351 351 351 351 352 352 353 354 355 355 355 355 356 356 355 354 354 353 353 353 353 352 352 353 354 353 352 351 352 351 351 351 350 351 350 351 351 352 352 351 352 352 351 349 348 348 349 349 348 348 348 348 347 347 345
351 351 351 350 351 352 352 352 353 353 354 353 353 353 353 353 353 352 352 353 352 353 353 353 353 354 355 355 355 355 355 355 355 355 355 354 354 353 353 353 353 353 354 354 353 353 352 352 352 352 352 351 351 350 350 350 351 352 352 353 353 352 352 350 350 350 350 350 349 348 348 347 347 346
346 344 343 343 345 347 349 351 351 353 354 355 354 354 353 353 352 352 351 352 351 351 351 351 352 353 353 353 353 353 353 354 353 353 353 353 354 353 353 353 353 353 354 353 353 352 352 353 353 352 352 352 352 351 351 351 352 352 353 353 353 354 353 353 351 351 351 351 350 349 348 348 348 347
336 334 334 335 336 339 342 344 347 350 353 354 354 355 354 353 352 352 351 350 349 348 349 350 350 351 352 352 352 352 352 352 352 353 352 353 353 353 353 353 352 353 353 353 352 353 352 353 352 352 352 352 352 351 351 351 352 352 352 352 353 355 355 354 353 353 352 351 351 350 350 350 350 349
327 329 332 333 333 335 336 338 340 343 346 348 349 350 351 352 352 350 349 349 349 348 349 349 349 350 352 352 352 352 351 351 352 353 352 351 352 351 351 351 352 352 352 352 352 352 352 352 351 351 352 352 352 352 352 351 351 352 352 353 353 354 355 355 354 354 353 352 352 351 351 351 351 350
325 326 329 333 333 333 334 333 333 334 335 338 340 341 344 348 350 349 349 350 350 350 351 350 350 352 353 353 352 352 351 351 352 352 350 350 350 351 350 350 350 351 351 351 351 351 351 351 351 351 351 352 352 352 352 352 352 352 352 353 353 353 354 354 354 353 353 352 351 351 352 352 352 352
326 327 329 331 331 331 331 330 330 331 332 334 336 337 340 344 346 346 348 351 351 351 352 352 352 353 353 353 353 352 350 350 352 352 349 349 349 350 349 349 349 350 351 350 351 350 351 351 351 351 351 351 352 351 352 352 352 352 352 353 353 354 354 354 354 354 353 351 350 351 353 353 353 353
326 328 330 331 331 331 331 331 332 333 333 334 335 336 339 341 343 344 346 348 349 349 350 350 351 351 351 351 351 350 349 350 352 350 348 349 349 349 349 349 349 350 350 350 350 350 351 351 351 352 351 352 352 352 352 352 352 352 353 353 353 353 354 353 354 354 353 352 351 352 353 354 353 354
324 326 329 331 331 332 332 332 333 333 334 334 335 335 337 339 342 343 344 346 347 348 349 349 349 349 349 350 350 349 349 350 350 349 348 348 349 349 349 349 349 349 350 350 350 350 351 351 351 352 352 353 353 353 353 353 353 353 353 353 353 354 354 353 355 354 354 354 352 352 351 353 355 354
324 324 326 328 330 331 332 332 332 333 334 334 335 336 337 338 340 341 342 343 344 344 346 347 347 348 349 348 349 349 349 349 349 349 348 348 348 349 349 349 349 349 350 350 351 351 351 351 352 352 352 352 352 353 353 353 353 354 353 353 353 353 354 354 355 355 354 354 353 350 349 350 353 354
324 324 324 325 327 329 330 332 332 333 333 334 335 337 337 338 340 341 341 342 342 343 344 345 346 347 347 348 349 349 349 348 348 348 348 348 347 347 348 348 349 349 349 350 350 351 351 351 352 352 352 352 353 353 354 354 354 354 354 354 354 354 354 355 355 355 354 354 353 351 348 349 352 355
325 325 324 324 325 326 328 331 332 333 334 335 336 337 338 339 340 341 342 343 343 343 344 344 345 347 347 348 348 349 349 349 348 348 348 348 347 348 347 348 348 349 349 350 350 351 351 351 352 352 352 353 354 353 353 353 353 353 354 354 355 355 355 355 355 355 355 355 354 353 352 351 353 356
326 326 325 324 324 324 327 331 332 334 335 337 338 338 339 340 341 342 343 343 343 344 345 345 346 347 348 348 348 349 349 348 349 348 349 349 349 348 348 349 349 349 350 350 350 351 351 351 352 352 352 352 354 354 353 353 353 353 353 353 354 355 355 356 356 356 356 356 356 355 354 354 355 356
325 326 326 326 326 326 329 332 334 335 337 338 339 339 339 339 339 339 339 339 339 341 342 344 344 346 347 347 348 348 349 349 348 349 349 349 349 349 349 349 349 350 350 350 350 350 351 351 352 353 352 352 353 354 353 352 353 354 354 354 354 355 355 356 356 356 356 356 356 356 356 355 356 356
321 322 324 327 329 330 332 334 336 337 338 338 338 336 335 334 334 334 333 333 333 335 336 337 339 340 342 344 345 347 348 348 348 349 349 349 349 350 349 350 350 350 350 350 350 350 351 351 352 353 353 353 353 354 353 352 353 354 354 354 354 354 355 355 355 356 356 356 356 355 355 354 353 354
321 321 322 326 330 333 334 335 337 338 337 336 334 333 332 331 331 330 330 329 330 331 332 332 333 335 337 338 340 343 346 347 348 349 349 349 350 349 350 350 350 349 350 350 350 350 351 352 353 353 353 353 353 353 352 352 352 353 353 354 354 353 353 354 354 355 355 355 355 355 354 353 351 351
321 322 322 325 330 334 334 335 337 336 334 332 331 330 329 329 329 329 328 327 327 328 328 329 329 331 332 333 335 338 342 344 346 348 349 350 350 350 350 350 350 349 349 350 350 351 352 352 353 352 352 352 353 352 351 352 352 351 352 353 353 353 353 353 354 354 354 354 354 354 354 352 349 348
323 324 324 325 328 332 333 333 334 333 330 327 327 327 326 326 326 326 325 325 324 324 325 325 325 326 328 330 332 335 338 341 343 346 347 349 349 350 350 350 350 350 350 351 351 352 352 352 352 352 351 351 352 351 350 351 351 351 351 352 352 352 352 352 353 353 353 353 353 353 353 353 350 349
322 323 325 327 329 331 332 331 330 328 326 324 324 323 323 323 322 322 321 321 321 321 321 321 322 323 325 327 329 332 334 337 340 342 343 344 346 347 348 349 350 350 350 350 350 351 351 351 351 350 349 349 350 350 350 350 350 350 350 351 351 352 352 352 352 352 352 352 353 353 353 352 352 352
320 322 325 328 329 329 328 326 325 323 322 321 321 321 321 320 320 320 319 319 319 319 320 320 320 322 323 324 326 328 329 332 334 337 340 342 343 344 346 346 348 348 349 349 349 349 349 350 349 348 348 348 349 349 349 349 349 349 349 349 350 350 351 351 351 351 351 352 353 353 352 352 352 352
Wind_Speed
6 7 7 7 9 8 5 5 5 6 6 5 4 4 3 2 1 1 3 3 2 4 7 6 5 7 9 10 12 13 13 13 12 12 12 12 12 12 13 15 17 17 17 16 16 16 16 16 16 16 16 16 16 16 17 18 19 21 23 26 28 28 27 27 26 26 22 17 13 9 7 7 6 4
7 7 7 7 7 7 6 5 5 5 5 4 4 4 4 3 1 1 2 3 3 3 5 8 9 11 13 13 13 14 13 12 12 12 13 13 13 13 13 15 16 16 16 15 15 15 15 15 16 16 16 17 16 16 16 18 19 19 21 24 27 28 28 27 26 26 23 18 14 10 6 5 5 4
9 8 8 7 7 7 6 5 5 6 4 4 4 4 5 5 5 4 3 2 4 6 8 10 11 12 14 15 15 15 14 12 12 14 14 14 14 14 14 15 16 15 15 15 15 15 15 15 15 15 16 17 17 17 17 17 18 19 20 21 25 28 28 27 26 25 23 19 14 11 7 5 5 4
10 10 9 8 6 6 7 6 6 6 6 5 6 6 7 7 8 9 6 5 9 13 13 14 14 13 14 15 15 15 14 12 12 13 13 12 12 13 14 15 16 16 16 16 15 15 15 15 15 15 16 17 17 17 17 18 18 19 19 20 22 25 27 27 26 24 23 20 15 11 7 5 5 4
10 10 10 9 7 6 6 7 7 8 8 8 8 8 9 9 9 10 8 9 11 15 15 15 15 13 13 15 15 15 14 12 11 11 11 11 12 14 16 17 17 17 17 17 15 14 15 15 15 15 15 16 17 18 18 18 19 19 19 19 20 22 25 26 26 24 23 21 17 12 7 5 4 4
10 10 11 10 9 7 7 8 8 9 10 10 11 10 10 10 9 10 10 9 10 14 17 16 15 12 12 15 16 16 15 14 13 13 12 12 15 16 17 18 17 16 16 16 15 14 14 15 15 16 16 16 17 18 18 18 19 19 19 19 19 20 23 25 25 24 22 21 18 13 9 5 3 3
10 10 11 12 11 10 10 10 9 9 10 10 10 11 10 11 10 10 11 10 9 13 15 15 15 14 14 16 17 18 18 17 16 16 15 16 18 18 17 17 16 16 16 15 16 16 15 15 15 16 16 16 17 17 18 18 18 19 19 19 19 18 20 22 24 23 21 20 18 14 10 6 3 2
12 12 12 12 12 12 12 13 12 11 11 10 11 11 11 11 11 11 12 12 11 11 14 15 15 15 15 17 19 20 20 19 18 18 19 20 20 18 16 16 16 16 16 16 17 17 17 17 16 16 16 17 17 17 17 17 17 18 19 18 18 18 18 20 22 23 21 19 18 15 11 7 4 2
14 14 14 14 13 13 13 14 15 14 13 12 12 12 12 12 12 12 14 14 13 13 14 16 16 16 17 19 21 21 20 20 21 21 22 21 20 18 17 17 17 17 18 18 17 18 18 18 17 16 16 17 18 18 18 18 18 18 18 18 18 17 16 17 20 21 21 19 17 15 12 8 4 2
15 15 16 16 15 15 15 15 15 14 14 14 14 14 14 13 14 15 15 15 15 14 15 16 17 19 19 21 22 21 20 21 22 23 24 23 22 22 21 20 18 18 18 19 18 18 19 19 18 18 18 17 18 18 18 18 18 18 18 18 17 17 15 16 17 19 20 19 16 15 13 9 5 2
17 17 17 17 16 16 17 17 16 16 16 16 16 17 17 17 17 17 17 16 16 16 16 17 19 20 20 21 22 22 22 22 22 21 20 23 26 27 26 25 23 21 20 20 20 21 20 20 19 19 19 18 18 19 17 17 18 17 17 17 17 16 15 14 15 17 18 18 16 14 13 10 6 3
18 18 18 18 18 18 18 19 19 19 18 19 20 21 20 20 20 20 20 20 20 19 19 20 21 21 21 22 23 23 23 22 21 19 17 20 27 28 27 28 26 24 22 21 21 21 19 18 18 19 20 21 21 19 17 16 17 16 16 16 15 15 14 13 13 15 17 17 16 14 12 11 8 4
20 19 19 19 19 19 20 20 20 21 21 22 23 24 23 22 22 22 22 22 22 22 21 22 23 21 21 24 24 23 24 22 22 22 20 21 25 26 26 28 26 24 22 20 20 21 18 18 20 22 24 24 21 18 17 16 16 15 14 14 14 13 13 12 12 14 15 16 16 14 12 10 9 6
23 22 21 21 21 21 21 21 22 22 22 22 23 24 24 24 25 25 24 24 24 23 22 23 23 20 21 25 25 24 26 25 23 24 23 22 24 25 25 26 27 25 21 17 19 24 23 22 24 26 26 24 20 18 17 16 15 14 13 12 12 12 12 11 11 12 14 15 15 14 12 10 9 7
25 24 24 24 24 24 24 23 23 23 22 22 23 23 24 25 26 26 26 27 26 24 22 23 23 20 22 27 28 27 28 27 26 26 24 22 23 22 19 20 24 27 24 19 22 29 29 26 26 27 26 23 20 18 17 16 16 15 13 11 10 11 11 11 11 12 13 14 15 14 12 10 8 7
26 26 27 27 27 27 27 26 26 25 24 23 23 23 24 24 26 26 26 26 26 24 24 24 24 23 24 28 30 30 29 27 27 26 25 23 23 22 19 19 23 28 29 24 23 28 32 29 27 28 27 24 21 19 17 17 16 16 15 13 11 10 10 11 11 11 12 13 14 14 13 11 9 6
28 28 28 28 28 28 27 27 27 27 26 26 25 25 25 25 26 26 26 25 25 26 25 25 27 27 27 28 30 31 29 27 26 27 28 27 25 24 23 24 27 31 31 27 22 26 32 31 27 29 28 25 24 21 18 17 16 16 16 14 12 11 11 11 11 11 12 12 13 14 13 12 10 7
29 29 29 29 29 29 28 28 28 28 28 28 28 28 28 28 27 27 28 28 28 29 28 27 28 29 29 30 31 32 31 30 29 29 30 30 28 28 28 28 31 33 33 28 19 20 29 30 25 28 29 27 26 24 19 17 17 16 16 13 12 12 11 11 11 11 12 12 12 14 14 12 11 8
30 30 30 30 31 30 30 30 30 30 30 30 30 30 30 30 30 30 30 29 29 30 30 30 31 31 32 32 33 34 33 33 33 32 30 29 29 29 30 30 33 34 33 28 16 15 26 29 25 28 30 27 25 23 19 17 17 15 14 13 13 12 12 12 13 12 13 13 13 13 13 13 12 10
28 29 29 31 31 31 31 30 30 31 32 31 31 32 32 33 33 32 31 29 29 30 31 32 33 32 33 33 33 34 34 34 34 33 31 30 29 27 26 28 32 33 32 29 18 15 24 29 24 26 28 25 24 24 20 16 15 13 12 12 13 13 12 13 14 14 14 14 14 14 14 13 13 11
24 25 26 27 28 30 30 29 29 30 31 31 32 33 34 34 34 34 33 32 32 32 31 32 32 31 31 31 32 33 33 32 32 31 30 31 29 24 20 21 26 29 32 32 22 16 22 27 24 24 24 22 23 24 22 18 15 13 12 12 13 14 14 15 16 16 16 16 16 15 15 14 14 13
21 22 23 23 24 27 27 28 28 29 30 32 32 33 33 33 33 35 35 34 34 33 31 31 31 30 31 31 32 32 31 30 29 29 31 31 28 23 20 20 23 27 33 33 22 14 19 22 20 19 19 20 24 25 23 20 16 12 12 13 13 14 15 16 17 18 18 18 17 17 16 15 15 15
18 18 18 19 20 22 23 24 25 26 27 30 32 32 31 31 32 35 34 32 31 32 31 31 31 31 31 32 32 32 31 29 28 28 30 30 27 25 25 25 19 16 24 27 17 11 16 19 18 16 13 13 18 22 21 19 17 15 15 16 16 16 16 17 19 20 20 20 20 19 18 18 18 18
17 17 17 17 17 18 19 20 21 22 22 25 27 29 29 30 32 33 32 30 29 29 29 30 31 32 33 34 33 33 32 31 29 28 28 28 27 27 28 28 20 16 23 28 20 16 19 21 20 19 15 10 13 20 23 23 23 22 21 21 19 18 18 19 20 21 22 22 22 21 20 20 20 20
16 17 17 17 17 17 18 19 20 20 20 21 22 25 27 28 29 31 32 32 31 30 31 32 33 34 35 35 35 33 33 32 30 29 28 28 28 27 27 28 26 25 31 33 27 23 24 24 23 22 19 16 18 22 26 27 27 26 25 23 22 21 20 20 21 22 23 24 24 23 23 23 22 22
15 16 17 17 17 18 18 19 20 21 22 22 22 23 24 25 26 28 29 31 31 31 32 32 33 34 35 35 35 34 32 32 30 30 30 30 29 28 28 28 27 30 34 34 29 24 23 25 25 22 19 19 21 23 24 26 27 26 25 24 23 22 21 21 21 22 22 23 24 25 25 25 24 24
15 15 16 16 16 16 17 19 20 21 22 23 23 24 23 24 24 25 26 27 27 28 29 29 30 31 32 32 32 32 31 30 30 30 31 31 31 30 31 31 30 32 35 35 32 28 26 27 28 25 22 23 23 20 21 23 25 24 24 26 25 24 23 23 23 23 23 23 24 25 26 27 27 26
15 17 18 18 17 17 17 18 18 20 21 22 23 24 24 24 24 24 24 25 24 24 25 26 27 29 30 31 31 31 31 31 32 32 33 34 34 33 33 33 33 35 37 36 34 31 30 31 32 30 28 27 25 22 21 24 26 25 26 27 28 27 27 26 25 26 26 26 26 26 27 27 27 28
19 20 20 20 20 20 20 20 20 21 21 21 22 23 23 24 25 25 25 25 24 24 25 26 28 30 33 34 34 35 34 34 35 37 37 38 36 34 33 33 33 36 37 36 34 31 30 31 32 32 31 30 29 28 27 27 28 28 27 28 30 32 32 29 28 29 28 28 28 29 28 28 27 28
22 22 22 21 21 22 22 23 23 24 24 24 25 25 24 23 21 21 21 23 24 26 28 29 30 33 35 37 37 37 35 35 37 37 36 36 36 34 31 30 33 36 35 32 30 28 26 27 29 29 31 31 31 32 31 30 30 29 28 29 30 30 30 30 29 29 28 28 28 28 28 29 28 28
23 24 24 23 23 22 22 23 23 24 25 25 26 26 25 22 20 20 21 23 24 27 29 31 31 33 34 34 35 34 33 33 36 36 33 32 34 33 28 26 30 36 33 28 25 22 22 23 23 25 28 31 32 33 33 32 32 30 28 30 31 30 30 30 30 31 31 29 28 28 28 29 29 29
25 24 25 25 24 24 24 24 24 24 24 24 24 24 24 21 21 23 24 23 24 26 28 29 30 32 32 32 33 32 31 32 35 34 30 30 31 30 26 23 27 32 30 24 21 20 21 22 21 22 25 29 32 33 31 30 31 30 30 31 33 34 36 35 35 35 34 30 29 31 31 31 31 32
26 25 25 25 25 25 25 25 25 25 24 24 24 23 22 20 20 22 23 24 25 26 27 28 29 31 31 32 32 30 29 32 35 32 28 27 28 26 23 23 26 29 28 25 23 21 23 23 22 22 25 27 30 32 30 28 28 30 32 33 33 34 36 36 34 34 32 30 31 32 33 33 34 34
26 24 24 24 24 24 24 24 24 24 25 25 25 24 23 21 19 20 22 24 26 26 27 28 30 31 31 32 32 30 31 33 34 29 26 25 25 24 22 23 26 28 27 27 26 24 24 24 23 23 26 28 30 31 32 30 30 33 34 33 33 34 35 34 33 32 32 32 31 31 32 35 36 36
27 24 23 23 23 23 23 23 24 24 24 24 24 25 24 22 20 20 21 23 24 25 26 27 28 30 30 31 31 32 32 33 32 29 27 25 25 25 24 24 27 27 25 26 27 26 24 23 22 22 25 25 24 25 28 30 33 35 35 32 31 33 35 34 32 32 32 32 31 30 31 34 36 37
28 26 23 22 22 23 23 24 24 24 23 23 23 23 24 24 23 22 22 22 23 24 25 26 27 29 29 30 31 32 33 31 30 30 29 27 25 25 24 24 26 26 25 26 29 28 25 23 22 21 19 16 11 12 19 25 27 27 29 30 30 31 33 33 32 31 31 30 30 30 29 31 35 37
28 27 25 24 23 23 23 24 24 23 22 21 21 21 22 23 23 23 23 24 24 25 25 26 27 28 28 29 30 31 31 30 28 28 29 27 24 22 22 22 23 23 24 27 30 29 25 23 23 21 17 10 5 7 17 28 29 23 23 28 30 30 30 29 27 28 29 29 30 31 32 33 36 37
25 27 27 26 25 24 23 23 22 21 19 18 18 20 21 22 24 24 24 24 24 26 26 27 27 28 29 29 29 30 30 29 27 27 28 26 24 21 20 21 22 23 25 28 29 28 24 23 24 24 19 11 6 7 13 22 25 21 19 22 26 28 28 26 25 27 28 29 30 31 32 33 35 36
25 25 26 25 25 24 22 20 18 17 16 15 16 16 17 19 20 20 21 21 22 23 24 23 24 25 26 27 27 28 29 29 28 27 27 26 24 23 22 22 24 25 26 27 27 25 22 21 24 28 27 22 19 19 20 21 24 27 26 23 24 26 26 26 26 26 27 28 29 30 31 33 34 35
26 25 25 25 23 20 18 16 15 14 12 11 11 13 15 18 19 20 21 22 23 24 24 24 25 24 23 24 25 26 28 29 29 28 27 26 26 25 24 25 27 27 25 25 25 22 22 24 28 31 32 32 32 33 31 27 28 33 34 32 30 29 28 28 28 28 28 28 27 26 28 29 29 31
27 26 26 25 20 15 13 13 12 10 9 10 12 15 18 20 22 23 25 25 24 23 24 26 28 27 25 24 24 25 27 29 29 27 27 26 26 27 27 27 28 26 24 23 24 24 25 28 30 29 29 32 33 31 24 19 20 27 33 35 33 30 28 28 28 29 30 29 25 23 24 25 25 26
26 26 27 25 20 15 13 13 13 12 13 14 16 17 18 20 22 25 27 28 27 26 26 28 30 29 27 26 25 25 27 29 29 28 26 25 25 26 26 25 26 26 24 24 26 29 28 27 25 23 22 26 27 23 16 14 18 24 29 32 31 29 27 26 25 25 26 28 26 25 24 20 15 15
26 26 27 26 22 19 18 17 17 17 17 17 17 17 19 21 23 25 27 29 30 30 30 30 32 31 30 28 26 25 27 28 28 27 27 26 24 23 23 24 24 26 26 27 29 31 28 24 24 24 23 24 25 21 19 22 25 26 28 31 32 31 30 28 26 24 23 24 26 27 28 25 18 15
27 28 28 26 23 21 20 19 18 18 18 18 18 18 19 21 24 26 27 29 30 31 32 32 34 34 32 29 26 26 27 28 27 27 29 29 28 26 25 25 24 25 26 27 28 29 27 24 24 23 23 24 26 24 24 27 28 27 28 30 31 31 30 28 26 24 23 23 25 25 27 30 30 31
29 28 26 23 21 20 19 18 18 18 18 18 18 19 21 23 25 27 29 29 30 31 31 32 33 33 33 30 28 29 29 29 29 29 29 30 30 29 27 26 25 25 26 25 25 26 25 23 21 21 22 25 27 28 28 29 29 29 29 29 29 30 29 26 25 25 25 27 28 27 25 27 29 32
Wind_Direction
278 283 294 307 315 321 320 323 341 339 329 339 343 339 356 32 63 343 326 308 302 352 3 3 347 336 338 334 332 334 335 332 324 317 318 321 324 328 329 331 335 338 339 340 338 335 333 331 330 330 333 338 344 351 352 350 351 354 357 357 356 358 2 7 10 9 11 15 13 20 39 24 20 44
272 277 283 297 309 317 321 320 331 335 329 330 337 337 336 340 335 220 251 286 295 321 340 344 344 339 339 340 338 334 330 326 321 315 314 318 321 323 323 325 329 332 333 334 336 337 335 331 329 327 327 330 334 340 345 345 345 348 352 355 355 355 359 5 10 10 10 14 17 15 22 27 27 42
267 273 275 285 298 307 315 320 322 324 325 321 323 334 332 326 315 290 261 263 298 309 316 325 334 336 336 339 340 337 329 318 312 311 313 316 320 322 323 325 328 331 330 326 327 331 332 331 330 328 326 325 327 331 335 337 339 341 345 349 352 353 354 360 7 11 11 12 18 18 17 30 39 46
262 267 267 273 287 296 301 306 310 307 307 304 303 312 320 321 313 299 275 252 282 301 309 316 324 329 329 331 337 339 334 326 318 313 313 319 324 327 328 326 327 329 330 327 323 323 325 327 328 328 327 325 324 326 329 331 332 334 337 341 346 349 351 355 2 9 12 12 16 20 19 27 40 44
254 260 260 261 270 285 290 294 299 300 298 294 291 296 303 311 319 312 287 264 279 297 306 313 320 324 323 325 334 341 337 334 331 323 321 325 326 327 327 325 325 327 330 330 325 321 321 323 324 325 325 325 323 323 325 327 327 328 331 334 338 343 347 350 355 4 11 12 14 19 19 20 35 42
247 252 254 253 255 266 277 280 286 292 293 289 286 289 292 297 310 318 304 278 273 289 300 309 314 318 320 320 327 335 333 330 328 325 323 323 324 326 326 324 324 326 327 325 322 320 319 319 322 323 323 323 322 322 323 324 324 325 326 329 331 336 342 345 349 357 7 12 13 16 19 20 29 42
252 252 251 249 250 256 264 268 272 280 285 285 284 288 291 290 294 309 310 295 277 283 295 305 309 312 315 315 320 326 325 321 321 319 319 321 324 326 326 325 325 325 323 317 314 315 316 316 319 322 324 324 321 320 321 321 321 322 322 325 327 330 335 340 344 350 360 9 12 13 16 21 26 40
258 260 257 253 253 255 258 261 264 269 273 274 279 287 291 286 284 293 302 300 291 284 288 297 304 307 310 312 315 318 318 317 317 317 318 323 327 327 324 320 322 326 326 319 312 309 309 310 313 317 322 325 323 320 321 320 318 319 319 321 324 326 329 334 339 345 353 3 10 12 14 21 27 40
260 262 265 266 265 264 262 261 262 268 270 268 273 282 286 284 284 289 293 295 295 287 285 293 301 304 305 307 309 312 314 316 318 320 324 327 329 328 325 319 317 321 324 322 318 311 306 303 304 309 316 322 324 322 320 320 318 317 317 318 320 322 324 327 333 339 346 355 6 11 12 17 27 41
266 265 268 272 273 272 270 267 266 269 272 272 274 278 281 283 287 289 287 288 291 288 285 289 294 298 300 301 305 309 311 311 313 319 325 329 330 329 328 323 319 318 318 319 321 318 313 305 299 302 309 316 322 323 320 320 318 316 316 316 318 319 319 321 326 333 339 347 359 10 13 14 23 39
268 269 271 273 273 273 273 272 272 274 276 277 277 278 279 281 283 284 282 282 285 284 282 283 286 290 294 295 299 305 308 307 309 314 319 324 329 331 330 325 321 318 315 314 315 317 317 312 303 302 306 310 317 320 317 317 318 317 316 316 316 316 315 314 318 325 332 339 350 3 12 13 15 28
267 269 271 273 274 274 274 273 274 275 276 279 280 279 279 279 280 281 280 280 282 281 279 281 283 285 288 290 295 301 304 305 311 317 314 313 321 326 327 324 321 319 318 316 314 314 316 314 308 305 306 309 315 316 316 318 320 319 318 317 316 314 310 307 309 317 325 333 342 353 6 14 13 13
265 267 270 273 276 278 278 277 277 277 277 280 281 282 282 283 284 284 283 282 282 281 280 280 282 283 284 288 292 297 301 303 309 314 310 308 317 321 321 323 323 320 320 320 317 316 317 313 310 308 308 312 316 318 319 323 326 324 321 318 316 313 308 302 301 308 317 326 334 343 355 9 13 9
263 265 267 271 274 277 279 278 278 279 280 281 281 282 284 286 287 286 285 284 283 281 279 280 282 281 281 287 290 293 298 302 305 308 308 309 316 320 319 321 323 322 324 325 318 315 315 311 309 311 313 315 319 320 321 325 328 329 326 320 317 314 307 299 295 300 310 320 327 335 345 359 10 10
265 265 267 270 273 274 274 274 274 275 277 279 281 282 284 286 287 284 283 284 284 281 279 279 281 277 277 286 291 291 295 299 301 305 306 306 311 314 312 311 313 318 321 320 313 312 313 312 310 313 316 317 319 319 319 321 323 327 330 324 314 309 305 298 291 293 303 312 321 328 335 345 359 6
268 268 269 273 275 276 275 274 273 273 273 275 277 280 283 285 286 286 283 282 283 281 279 278 278 278 277 283 288 290 292 296 299 301 301 301 303 304 299 293 299 310 314 312 309 309 312 313 310 311 315 317 318 317 316 315 316 320 327 325 315 304 299 294 287 286 295 305 314 321 328 334 344 357
270 271 273 275 277 279 279 279 278 277 276 277 277 279 280 281 283 284 283 283 284 284 281 276 277 283 282 280 286 292 291 290 293 294 295 297 298 297 294 292 297 306 309 307 304 304 308 311 309 308 313 317 317 316 313 309 306 308 314 317 313 303 292 286 281 278 285 295 305 314 320 324 329 338
270 272 274 276 279 282 283 283 283 282 282 282 282 281 281 281 281 282 282 284 285 286 285 280 281 288 288 285 290 297 294 289 289 290 292 295 296 294 292 293 297 301 303 304 298 294 303 310 307 304 312 318 317 316 313 306 302 301 303 306 307 302 290 280 273 269 275 284 293 304 311 315 318 321
269 272 273 275 278 281 283 284 284 284 284 284 284 284 283 283 283 283 283 284 285 286 286 285 286 290 292 291 293 297 296 293 293 292 291 292 292 291 292 293 294 297 301 303 292 279 298 308 303 301 311 317 316 317 316 308 303 298 294 295 298 296 286 277 268 262 264 271 279 290 299 304 307 308
270 273 274 274 276 278 280 283 284 285 284 282 282 283 283 284 284 283 282 282 282 283 283 284 286 287 289 291 292 293 293 291 292 291 288 288 287 286 288 290 292 296 301 303 293 276 293 302 297 299 310 314 313 316 317 310 303 295 288 289 291 289 280 271 265 259 258 262 268 276 285 293 298 297
273 275 276 277 278 278 279 282 284 285 284 281 280 280 281 282 282 282 283 283 283 282 281 283 284 285 287 290 292 292 290 289 289 285 281 283 284 281 281 283 288 294 298 300 296 278 284 296 295 296 307 311 310 314 316 311 302 291 285 286 287 286 280 270 263 259 257 259 261 267 275 282 288 288
277 278 279 280 281 281 282 283 284 286 285 281 280 279 279 279 278 280 283 284 283 283 284 285 287 289 291 294 295 295 293 291 289 281 278 283 282 274 271 274 282 291 294 297 298 275 278 295 298 294 302 306 304 307 311 310 304 293 287 286 284 286 285 278 270 263 259 260 261 263 268 273 278 281
284 284 285 285 285 285 287 288 288 289 288 285 283 281 279 276 276 279 282 282 283 286 288 291 293 294 296 297 297 297 296 295 292 285 283 285 279 270 270 273 275 285 292 297 301 281 281 297 299 293 296 300 301 304 305 304 302 295 290 287 285 284 284 280 276 269 264 262 262 262 265 268 272 276
294 295 293 292 293 292 293 293 291 291 291 289 288 285 278 274 276 280 281 281 283 286 288 291 292 293 295 296 296 296 298 298 296 292 290 288 281 273 272 272 267 264 276 286 290 285 287 292 292 291 290 279 285 295 296 295 294 292 291 291 289 286 281 278 277 274 269 265 263 263 264 265 268 271
301 303 302 301 301 299 297 297 294 292 291 290 289 285 281 280 282 282 281 281 282 284 285 287 290 292 294 295 295 296 297 298 299 297 295 292 287 280 274 272 268 266 275 284 284 281 283 285 285 286 284 274 272 282 287 289 290 290 290 290 289 287 282 279 276 273 271 269 266 265 264 263 264 267
308 309 309 308 305 302 300 298 295 294 293 291 289 288 287 287 287 284 282 283 284 284 286 288 289 291 292 292 293 294 295 297 300 300 297 295 291 286 282 278 271 270 279 287 286 281 280 282 282 281 278 275 276 279 281 284 287 289 288 287 289 289 285 280 275 271 269 268 267 266 264 262 262 264
325 324 323 320 315 310 306 302 299 296 294 292 290 289 288 288 288 287 286 285 284 285 286 287 288 290 291 291 292 293 296 300 302 301 299 296 292 288 286 284 279 278 284 288 285 280 278 278 279 278 274 274 277 278 277 279 282 285 286 287 288 287 284 279 274 271 270 268 267 266 264 261 260 260
333 331 328 324 320 316 312 308 304 300 297 296 293 290 286 284 284 285 285 286 286 285 285 284 286 288 289 290 290 292 297 300 301 299 297 294 291 288 285 284 283 283 285 285 282 278 277 276 276 277 275 272 271 272 274 276 279 281 284 285 285 285 283 279 273 272 272 271 269 266 263 263 262 260
323 321 318 315 311 309 307 306 304 300 297 298 298 296 293 287 283 281 282 285 286 286 285 285 285 285 286 288 290 292 295 296 294 293 291 289 288 286 283 282 282 281 282 281 280 279 277 276 277 277 274 270 266 266 269 272 274 275 276 278 281 284 283 279 275 274 273 271 270 269 268 268 266 262
317 317 316 314 311 309 307 306 304 301 298 297 298 300 301 299 295 292 289 287 285 284 284 284 284 285 286 288 289 291 291 290 289 287 286 285 285 283 281 280 281 282 281 280 280 280 278 278 278 275 271 268 265 263 265 267 269 271 271 271 276 280 280 278 278 277 275 273 273 273 273 271 267 263
316 315 314 315 315 314 312 310 309 306 304 303 303 304 307 308 307 305 299 291 286 283 283 282 284 287 289 288 288 287 286 285 285 285 282 281 282 282 281 279 280 283 284 283 283 283 281 279 277 271 267 266 264 263 263 262 263 266 268 268 268 270 272 274 275 276 276 276 275 273 271 268 265 263
316 312 311 313 316 318 319 318 317 316 315 314 312 311 312 312 309 305 302 295 290 287 285 284 286 288 288 287 286 286 284 283 285 285 281 277 279 282 280 275 276 282 285 286 284 284 283 281 277 271 268 265 264 264 263 259 258 261 263 265 264 265 267 269 269 272 274 271 268 268 268 268 267 266
319 315 313 314 317 320 322 322 321 321 319 318 315 313 312 310 305 303 300 295 292 291 289 287 286 286 287 287 287 287 285 284 285 284 281 278 280 280 275 269 271 276 282 284 284 284 285 284 280 276 273 269 267 265 261 257 258 259 260 260 260 261 264 266 267 269 268 264 262 265 266 267 268 267
321 318 316 316 317 318 319 318 318 318 317 314 313 312 311 308 303 299 296 295 293 293 291 288 286 285 285 285 286 286 284 284 285 285 284 283 281 276 270 266 268 272 276 280 283 284 285 285 283 281 277 273 270 267 261 256 256 258 258 257 256 258 262 264 265 266 265 263 262 261 262 266 269 268
317 316 315 314 314 315 314 312 313 314 312 310 310 311 311 310 306 300 296 295 295 294 292 289 287 285 283 282 283 283 282 283 285 285 286 284 279 272 267 264 267 271 274 278 282 284 283 282 280 278 276 275 274 274 269 261 255 255 257 255 254 256 260 263 264 263 262 261 258 255 257 264 269 271
313 312 310 308 310 311 309 308 309 309 308 307 308 308 308 309 310 307 305 303 300 295 292 290 288 286 284 282 282 283 282 282 283 285 285 283 277 273 269 266 268 273 276 278 281 282 280 277 272 267 269 277 281 281 281 276 266 258 256 258 259 259 261 263 264 261 258 258 254 250 252 258 267 273
309 308 305 303 304 305 304 304 306 306 306 307 307 307 307 307 310 312 313 311 306 300 297 295 291 289 288 285 283 283 283 282 282 283 284 283 281 277 272 270 272 275 276 278 280 279 275 272 266 258 256 269 279 269 279 282 279 268 258 258 261 264 265 264 262 259 258 257 255 253 253 256 265 275
312 309 304 300 300 301 302 303 305 304 306 309 310 308 308 308 310 313 314 311 308 306 303 300 295 292 291 288 285 284 284 284 282 281 281 282 282 278 274 273 275 276 276 276 278 276 271 266 262 256 248 246 250 254 270 280 282 280 273 265 263 265 265 260 256 258 260 260 260 260 259 260 267 276
319 315 310 303 301 302 303 304 304 303 306 312 315 315 317 319 320 322 323 323 324 323 320 314 309 305 303 300 296 292 288 285 282 279 278 279 278 275 273 274 275 276 276 274 275 275 269 259 256 254 246 240 244 253 259 268 277 282 284 279 271 266 264 259 257 259 260 261 262 265 265 265 269 274
318 317 315 310 305 304 306 305 304 302 304 311 319 321 322 324 326 327 328 329 329 329 328 325 321 319 318 316 312 306 298 291 285 281 278 276 274 272 270 270 271 273 273 272 273 270 261 255 257 259 257 255 260 264 265 269 274 277 279 279 275 270 265 264 263 262 262 264 264 263 263 264 267 271
314 314 315 312 306 303 304 300 292 288 291 301 310 313 312 313 316 318 320 321 322 321 320 318 317 317 318 318 317 314 307 300 295 289 283 277 273 271 269 266 267 268 268 268 269 267 264 265 270 272 270 268 268 269 269 271 273 275 277 279 280 277 274 271 267 263 264 267 265 261 263 265 267 270
312 310 311 309 301 289 283 277 269 272 287 297 303 307 308 309 311 312 314 315 316 314 313 312 311 311 312 313 313 311 306 303 302 300 294 286 277 272 268 264 262 263 263 263 266 270 273 276 276 276 275 270 265 262 262 266 269 273 278 280 281 281 281 279 275 270 268 266 261 258 261 263 263 265
313 309 307 304 294 279 270 266 265 273 286 294 299 303 308 310 311 312 312 313 312 311 309 308 307 307 307 307 308 305 300 299 300 302 302 298 290 281 274 268 265 265 265 265 270 275 277 275 272 272 272 268 261 254 255 263 268 272 275 277 279 281 281 281 280 277 272 267 261 258 258 258 254 255
311 310 307 300 286 271 264 266 272 280 289 295 300 305 308 310 311 312 311 310 308 305 304 304 305 305 305 304 304 300 296 296 297 297 297 297 294 289 283 277 273 271 269 268 271 275 274 270 268 264 258 257 257 254 252 259 266 268 269 272 275 277 279 281 281 278 274 271 269 267 265 263 261 261
307 307 303 290 273 264 266 274 281 289 295 298 302 305 307 309 310 310 309 307 304 302 300 300 301 301 302 302 302 299 296 296 297 296 293 291 290 289 287 284 279 275 272 270 269 271 271 267 261 252 246 248 254 254 252 256 261 265 267 270 272 274 276 279 279 277 277 278 279 280 279 275 271 269